QPF
0.01 0.01 0.02 0.01 0.00 0.01 0.02 0.03 0.03 0.03 0.02 0.01 0.01 0.01 0.00 0.00 0.00 0.00 0.00 0.00 0.00 0.01 0.00 0.00 0.00 0.00 0.00 0.00 0.00 0.00 0.01 0.01 0.05 0.09 0.10 0.09 0.10 0.14
0.01 0.01 0.02 0.01 0.01 0.02 0.02 0.02 0.03 0.03 0.03 0.02 0.00 0.00 0.00 0.00 0.00 0.00 0.00 0.00 0.00 0.01 0.01 0.01 0.00 0.00 0.00 0.00 0.00 0.00 0.00 0.01 0.03 0.08 0.12 0.12 0.10 0.10
0.01 0.02 0.02 0.01 0.02 0.02 0.01 0.02 0.02 0.01 0.03 0.01 0.01 0.00 0.00 0.00 0.00 0.00 0.00 0.00 0.00 0.00 0.01 0.01 0.00 0.00 0.00 0.00 0.00 0.00 0.00 0.00 0.02 0.05 0.08 0.11 0.13 0.13
0.03 0.02 0.01 0.01 0.02 0.01 0.01 0.02 0.01 0.01 0.02 0.01 0.00 0.00 0.00 0.00 0.00 0.00 0.00 0.00 0.00 0.00 0.00 0.00 0.00 0.00 0.00 0.00 0.00 0.00 0.00 0.00 0.01 0.04 0.05 0.07 0.10 0.11
0.02 0.02 0.01 0.02 0.02 0.01 0.01 0.01 0.01 0.01 0.02 0.02 0.00 0.00 0.00 0.00 0.00 0.00 0.00 0.00 0.00 0.00 0.00 0.00 0.00 0.00 0.00 0.00 0.00 0.00 0.00 0.00 0.00 0.03 0.06 0.05 0.06 0.08
0.02 0.02 0.01 0.01 0.01 0.01 0.01 0.01 0.00 0.01 0.01 0.01 0.01 0.01 0.01 0.00 0.00 0.00 0.00 0.00 0.00 0.00 0.00 0.00 0.00 0.00 0.00 0.00 0.00 0.00 0.00 0.00 0.00 0.01 0.04 0.05 0.06 0.06
0.02 0.01 0.01 0.02 0.02 0.01 0.01 0.00 0.00 0.01 0.01 0.01 0.01 0.01 0.01 0.01 0.00 0.00 0.00 0.00 0.00 0.00 0.00 0.00 0.00 0.00 0.00 0.00 0.00 0.00 0.00 0.00 0.00 0.01 0.02 0.02 0.03 0.04
0.02 0.01 0.01 0.02 0.02 0.01 0.01 0.00 0.00 0.00 0.01 0.01 0.01 0.01 0.01 0.01 0.01 0.01 0.00 0.00 0.01 0.00 0.00 0.00 0.00 0.01 0.01 0.00 0.00 0.00 0.00 0.00 0.01 0.01 0.02 0.01 0.01 0.01
0.03 0.02 0.01 0.01 0.02 0.01 0.00 0.00 0.00 0.00 0.00 0.01 0.01 0.01 0.01 0.01 0.01 0.01 0.01 0.01 0.01 0.01 0.00 0.01 0.00 0.00 0.00 0.00 0.00 0.00 0.00 0.00 0.01 0.01 0.01 0.00 0.01 0.01
0.03 0.02 0.02 0.02 0.02 0.02 0.02 0.01 0.00 0.00 0.00 0.00 0.01 0.01 0.01 0.01 0.01 0.01 0.01 0.01 0.01 0.01 0.01 0.01 0.01 0.01 0.00 0.00 0.00 0.00 0.00 0.00 0.00 0.00 0.00 0.00 0.00 0.00
0.03 0.03 0.03 0.02 0.02 0.02 0.01 0.01 0.01 0.01 0.01 0.01 0.01 0.01 0.01 0.01 0.01 0.01 0.01 0.01 0.01 0.01 0.01 0.01 0.01 0.01 0.00 0.00 0.01 0.00 0.00 0.00 0.00 0.00 0.00 0.00 0.00 0.00
0.03 0.03 0.04 0.04 0.03 0.02 0.01 0.01 0.01 0.01 0.01 0.01 0.01 0.01 0.01 0.01 0.02 0.01 0.01 0.01 0.01 0.01 0.01 0.01 0.01 0.01 0.01 0.01 0.01 0.01 0.01 0.01 0.01 0.00 0.00 0.00 0.00 0.00
0.04 0.04 0.03 0.03 0.02 0.02 0.01 0.01 0.01 0.01 0.01 0.01 0.01 0.01 0.01 0.01 0.01 0.01 0.01 0.01 0.02 0.02 0.01 0.01 0.01 0.01 0.01 0.01 0.01 0.01 0.01 0.01 0.01 0.00 0.00 0.01 0.01 0.01
0.03 0.03 0.02 0.02 0.01 0.01 0.01 0.00 0.00 0.00 0.01 0.01 0.01 0.01 0.01 0.01 0.01 0.02 0.02 0.01 0.01 0.01 0.01 0.01 0.01 0.01 0.01 0.01 0.01 0.01 0.02 0.01 0.01 0.00 0.00 0.00 0.01 0.01
0.03 0.02 0.02 0.03 0.01 0.01 0.01 0.00 0.00 0.00 0.01 0.01 0.01 0.01 0.01 0.01 0.01 0.02 0.02 0.01 0.01 0.01 0.00 0.00 0.00 0.00 0.01 0.01 0.01 0.01 0.01 0.01 0.00 0.00 0.00 0.00 0.01 0.01
0.03 0.04 0.04 0.04 0.02 0.01 0.01 0.01 0.00 0.01 0.01 0.02 0.02 0.01 0.00 0.00 0.01 0.01 0.01 0.01 0.00 0.00 0.00 0.00 0.00 0.00 0.00 0.01 0.01 0.00 0.01 0.01 0.01 0.01 0.01 0.01 0.01 0.01
0.03 0.03 0.04 0.04 0.02 0.01 0.01 0.01 0.01 0.01 0.01 0.01 0.01 0.00 0.01 0.01 0.00 0.00 0.00 0.00 0.00 0.00 0.00 0.01 0.00 0.00 0.00 0.00 0.00 0.00 0.00 0.00 0.00 0.01 0.01 0.01 0.00 0.01
0.04 0.03 0.02 0.03 0.02 0.01 0.01 0.01 0.01 0.01 0.01 0.00 0.00 0.00 0.01 0.01 0.01 0.01 0.01 0.01 0.00 0.00 0.00 0.01 0.00 0.00 0.00 0.00 0.00 0.00 0.00 0.00 0.00 0.00 0.00 0.00 0.00 0.00
0.05 0.03 0.02 0.02 0.02 0.01 0.01 0.01 0.01 0.01 0.01 0.01 0.01 0.01 0.01 0.01 0.01 0.01 0.01 0.01 0.01 0.01 0.01 0.01 0.01 0.01 0.01 0.00 0.00 0.00 0.00 0.00 0.00 0.00 0.00 0.00 0.00 0.00
0.03 0.03 0.02 0.02 0.02 0.02 0.02 0.02 0.01 0.02 0.02 0.01 0.01 0.01 0.02 0.02 0.02 0.02 0.02 0.02 0.02 0.02 0.01 0.01 0.01 0.02 0.02 0.01 0.01 0.00 0.00 0.00 0.00 0.00 0.00 0.00 0.00 0.00
0.02 0.02 0.02 0.02 0.02 0.03 0.03 0.03 0.02 0.02 0.01 0.01 0.01 0.01 0.01 0.02 0.02 0.02 0.02 0.03 0.02 0.02 0.02 0.02 0.02 0.03 0.03 0.02 0.02 0.02 0.02 0.02 0.02 0.02 0.01 0.01 0.01 0.01
0.02 0.02 0.03 0.03 0.03 0.03 0.03 0.03 0.02 0.02 0.01 0.01 0.01 0.01 0.01 0.01 0.01 0.01 0.01 0.02 0.02 0.02 0.02 0.02 0.02 0.03 0.03 0.03 0.03 0.03 0.03 0.03 0.03 0.02 0.02 0.01 0.01 0.01
0.02 0.02 0.02 0.03 0.04 0.04 0.03 0.02 0.02 0.01 0.01 0.01 0.01 0.01 0.01 0.01 0.01 0.01 0.02 0.02 0.02 0.02 0.02 0.02 0.02 0.02 0.02 0.02 0.03 0.03 0.03 0.03 0.03 0.02 0.02 0.02 0.02 0.02
MSLP
1016.53 1016.68 1016.92 1017.22 1017.56 1017.88 1018.15 1018.36 1018.49 1018.54 1018.55 1018.52 1018.48 1018.45 1018.44 1018.45 1018.48 1018.50 1018.50 1018.48 1018.42 1018.33 1018.22 1018.10 1017.98 1017.87 1017.76 1017.65 1017.51 1017.34 1017.12 1016.83 1016.46 1016.03 1015.54 1015.03 1014.52 1014.03
1016.47 1016.61 1016.83 1017.11 1017.41 1017.70 1017.95 1018.15 1018.29 1018.36 1018.40 1018.40 1018.40 1018.39 1018.38 1018.37 1018.36 1018.32 1018.26 1018.16 1018.04 1017.90 1017.76 1017.62 1017.50 1017.41 1017.34 1017.28 1017.20 1017.09 1016.93 1016.70 1016.40 1016.03 1015.61 1015.15 1014.69 1014.23
1016.51 1016.64 1016.84 1017.08 1017.34 1017.59 1017.81 1018.00 1018.13 1018.22 1018.28 1018.32 1018.34 1018.35 1018.35 1018.32 1018.25 1018.15 1018.00 1017.82 1017.61 1017.39 1017.19 1017.02 1016.88 1016.79 1016.73 1016.70 1016.66 1016.61 1016.51 1016.35 1016.13 1015.84 1015.51 1015.14 1014.75 1014.36
1016.68 1016.80 1016.97 1017.17 1017.39 1017.59 1017.77 1017.93 1018.05 1018.15 1018.23 1018.30 1018.35 1018.37 1018.37 1018.31 1018.19 1018.02 1017.79 1017.51 1017.21 1016.90 1016.62 1016.39 1016.21 1016.09 1016.02 1015.99 1015.97 1015.94 1015.88 1015.78 1015.63 1015.43 1015.20 1014.93 1014.65 1014.36
1016.99 1017.11 1017.26 1017.42 1017.58 1017.73 1017.86 1017.98 1018.08 1018.18 1018.27 1018.36 1018.43 1018.47 1018.46 1018.38 1018.23 1017.99 1017.68 1017.32 1016.92 1016.53 1016.17 1015.86 1015.61 1015.44 1015.32 1015.25 1015.21 1015.17 1015.11 1015.04 1014.94 1014.82 1014.67 1014.51 1014.35 1014.17
1017.47 1017.59 1017.72 1017.84 1017.95 1018.04 1018.11 1018.18 1018.25 1018.33 1018.42 1018.52 1018.61 1018.65 1018.65 1018.56 1018.38 1018.10 1017.74 1017.31 1016.84 1016.37 1015.93 1015.54 1015.22 1014.96 1014.77 1014.62 1014.51 1014.41 1014.32 1014.23 1014.14 1014.05 1013.97 1013.89 1013.83 1013.76
1018.11 1018.23 1018.34 1018.42 1018.48 1018.51 1018.53 1018.54 1018.57 1018.62 1018.70 1018.80 1018.89 1018.95 1018.96 1018.87 1018.69 1018.40 1018.01 1017.54 1017.03 1016.50 1016.00 1015.54 1015.13 1014.78 1014.49 1014.24 1014.02 1013.82 1013.64 1013.48 1013.35 1013.25 1013.18 1013.14 1013.14 1013.15
1018.87 1019.00 1019.10 1019.15 1019.17 1019.14 1019.10 1019.06 1019.04 1019.06 1019.12 1019.20 1019.30 1019.37 1019.39 1019.33 1019.16 1018.88 1018.49 1018.03 1017.50 1016.96 1016.41 1015.89 1015.41 1014.97 1014.57 1014.19 1013.84 1013.51 1013.21 1012.94 1012.71 1012.53 1012.42 1012.37 1012.38 1012.42
1019.72 1019.86 1019.96 1020.00 1019.98 1019.91 1019.82 1019.73 1019.66 1019.64 1019.67 1019.74 1019.84 1019.92 1019.96 1019.92 1019.78 1019.54 1019.19 1018.75 1018.25 1017.70 1017.15 1016.60 1016.06 1015.54 1015.03 1014.53 1014.05 1013.57 1013.12 1012.70 1012.34 1012.05 1011.84 1011.71 1011.67 1011.68
1020.60 1020.77 1020.88 1020.92 1020.89 1020.79 1020.66 1020.53 1020.43 1020.37 1020.37 1020.42 1020.51 1020.60 1020.65 1020.64 1020.55 1020.35 1020.05 1019.66 1019.20 1018.68 1018.13 1017.57 1017.00 1016.42 1015.83 1015.23 1014.61 1014.00 1013.40 1012.83 1012.31 1011.88 1011.53 1011.29 1011.13 1011.06
1021.48 1021.69 1021.82 1021.87 1021.84 1021.74 1021.59 1021.44 1021.31 1021.22 1021.20 1021.23 1021.30 1021.38 1021.45 1021.46 1021.40 1021.25 1021.00 1020.66 1020.25 1019.77 1019.25 1018.69 1018.10 1017.49 1016.84 1016.16 1015.45 1014.72 1013.99 1013.29 1012.63 1012.05 1011.55 1011.16 1010.86 1010.64
1022.33 1022.57 1022.74 1022.82 1022.81 1022.72 1022.58 1022.42 1022.28 1022.18 1022.13 1022.14 1022.19 1022.26 1022.32 1022.34 1022.30 1022.17 1021.96 1021.66 1021.28 1020.84 1020.34 1019.80 1019.21 1018.57 1017.89 1017.16 1016.39 1015.58 1014.77 1013.96 1013.19 1012.48 1011.85 1011.30 1010.85 1010.47
1023.14 1023.41 1023.62 1023.73 1023.76 1023.71 1023.59 1023.45 1023.31 1023.20 1023.14 1023.12 1023.14 1023.19 1023.22 1023.23 1023.18 1023.06 1022.85 1022.57 1022.21 1021.79 1021.30 1020.76 1020.17 1019.52 1018.82 1018.07 1017.26 1016.42 1015.56 1014.70 1013.85 1013.05 1012.31 1011.64 1011.04 1010.51
1023.91 1024.21 1024.45 1024.61 1024.68 1024.67 1024.60 1024.49 1024.36 1024.25 1024.18 1024.13 1024.12 1024.12 1024.12 1024.09 1024.00 1023.85 1023.63 1023.34 1022.97 1022.53 1022.03 1021.48 1020.88 1020.22 1019.50 1018.74 1017.93 1017.08 1016.20 1015.32 1014.45 1013.61 1012.80 1012.04 1011.34 1010.68
1024.63 1024.96 1025.23 1025.44 1025.56 1025.60 1025.57 1025.49 1025.40 1025.29 1025.20 1025.13 1025.08 1025.03 1024.96 1024.87 1024.73 1024.53 1024.26 1023.92 1023.51 1023.04 1022.51 1021.93 1021.29 1020.61 1019.88 1019.10 1018.29 1017.44 1016.58 1015.70 1014.84 1013.99 1013.16 1012.36 1011.59 1010.84
1025.33 1025.66 1025.96 1026.20 1026.37 1026.45 1026.47 1026.44 1026.37 1026.27 1026.17 1026.07 1025.97 1025.86 1025.73 1025.56 1025.35 1025.08 1024.74 1024.34 1023.87 1023.34 1022.76 1022.12 1021.44 1020.71 1019.95 1019.15 1018.33 1017.48 1016.63 1015.78 1014.93 1014.10 1013.28 1012.47 1011.68 1010.89
1025.99 1026.33 1026.64 1026.90 1027.10 1027.23 1027.29 1027.29 1027.24 1027.15 1027.04 1026.91 1026.76 1026.58 1026.38 1026.14 1025.85 1025.51 1025.10 1024.63 1024.09 1023.50 1022.85 1022.15 1021.40 1020.62 1019.81 1018.97 1018.12 1017.26 1016.41 1015.56 1014.73 1013.92 1013.12 1012.33 1011.54 1010.75
1026.60 1026.93 1027.25 1027.52 1027.75 1027.90 1027.99 1028.02 1027.98 1027.90 1027.77 1027.61 1027.42 1027.19 1026.92 1026.61 1026.26 1025.85 1025.37 1024.84 1024.25 1023.59 1022.88 1022.11 1021.31 1020.46 1019.58 1018.69 1017.79 1016.89 1016.01 1015.16 1014.32 1013.51 1012.73 1011.95 1011.18 1010.40
1027.16 1027.48 1027.78 1028.06 1028.29 1028.47 1028.58 1028.62 1028.59 1028.51 1028.37 1028.18 1027.95 1027.68 1027.36 1027.00 1026.58 1026.12 1025.60 1025.03 1024.39 1023.69 1022.93 1022.12 1021.25 1020.35 1019.41 1018.45 1017.49 1016.53 1015.60 1014.70 1013.84 1013.01 1012.21 1011.44 1010.67 1009.90
1027.65 1027.95 1028.24 1028.51 1028.74 1028.92 1029.04 1029.09 1029.07 1028.98 1028.83 1028.63 1028.37 1028.06 1027.70 1027.30 1026.85 1026.36 1025.81 1025.22 1024.56 1023.84 1023.06 1022.22 1021.32 1020.37 1019.38 1018.36 1017.33 1016.31 1015.31 1014.34 1013.42 1012.54 1011.71 1010.91 1010.13 1009.36
1028.06 1028.33 1028.61 1028.86 1029.09 1029.26 1029.38 1029.43 1029.41 1029.33 1029.17 1028.95 1028.67 1028.34 1027.96 1027.54 1027.07 1026.56 1026.01 1025.41 1024.76 1024.04 1023.27 1022.42 1021.51 1020.54 1019.52 1018.45 1017.37 1016.28 1015.21 1014.17 1013.18 1012.24 1011.34 1010.49 1009.67 1008.87
1028.37 1028.63 1028.88 1029.12 1029.33 1029.49 1029.61 1029.66 1029.65 1029.56 1029.41 1029.18 1028.89 1028.55 1028.15 1027.72 1027.24 1026.73 1026.18 1025.59 1024.96 1024.27 1023.51 1022.69 1021.79 1020.83 1019.80 1018.72 1017.60 1016.47 1015.34 1014.23 1013.17 1012.15 1011.18 1010.26 1009.38 1008.53
1028.57 1028.82 1029.05 1029.27 1029.47 1029.63 1029.74 1029.80 1029.79 1029.71 1029.56 1029.33 1029.04 1028.69 1028.29 1027.84 1027.36 1026.84 1026.30 1025.73 1025.11 1024.45 1023.73 1022.94 1022.08 1021.15 1020.14 1019.07 1017.95 1016.80 1015.64 1014.49 1013.36 1012.27 1011.23 1010.24 1009.30 1008.39
Thickness
5682 5681 5680 5679 5679 5677 5674 5669 5661 5653 5650 5653 5654 5654 5653 5651 5649 5647 5646 5645 5644 5643 5642 5642 5641 5640 5640 5640 5640 5640 5640 5639 5639 5638 5637 5637 5638 5639
5681 5680 5678 5678 5677 5676 5673 5671 5668 5661 5653 5653 5653 5653 5652 5649 5647 5645 5643 5642 5641 5640 5639 5638 5637 5636 5636 5635 5635 5635 5634 5633 5633 5632 5631 5630 5630 5630
5680 5679 5677 5677 5674 5673 5672 5670 5667 5663 5655 5652 5652 5651 5650 5647 5644 5642 5640 5639 5637 5636 5635 5634 5633 5632 5631 5631 5630 5630 5629 5628 5627 5626 5625 5624 5623 5622
5678 5677 5675 5675 5672 5671 5669 5667 5665 5663 5657 5650 5648 5648 5647 5645 5643 5641 5639 5636 5635 5633 5632 5631 5630 5629 5628 5627 5626 5625 5624 5622 5621 5620 5619 5617 5616 5614
5678 5676 5674 5673 5669 5668 5667 5665 5663 5662 5658 5652 5647 5646 5644 5643 5640 5639 5637 5635 5633 5631 5630 5628 5627 5625 5624 5623 5622 5620 5619 5618 5616 5615 5613 5611 5609 5608
5677 5676 5674 5672 5669 5667 5665 5663 5661 5658 5655 5650 5646 5643 5641 5640 5638 5635 5633 5632 5631 5630 5628 5625 5624 5622 5620 5619 5618 5616 5615 5613 5611 5609 5608 5605 5603 5601
5675 5674 5673 5671 5669 5667 5665 5662 5659 5655 5651 5647 5643 5640 5638 5635 5634 5633 5630 5629 5628 5627 5625 5622 5620 5619 5617 5615 5614 5612 5610 5608 5606 5605 5603 5601 5598 5596
5672 5670 5669 5668 5666 5665 5663 5661 5658 5654 5650 5646 5642 5639 5637 5635 5634 5632 5628 5625 5622 5624 5622 5619 5618 5615 5614 5612 5610 5608 5606 5604 5602 5600 5598 5596 5593 5591
5670 5668 5667 5665 5663 5661 5659 5657 5655 5653 5651 5648 5643 5640 5638 5637 5633 5630 5627 5625 5622 5622 5620 5616 5615 5612 5611 5609 5607 5605 5602 5600 5597 5595 5593 5591 5589 5586
5667 5666 5664 5661 5660 5657 5655 5652 5650 5649 5648 5647 5645 5643 5641 5638 5634 5631 5627 5623 5622 5620 5618 5612 5612 5609 5608 5605 5603 5601 5598 5596 5593 5591 5588 5586 5583 5581
5664 5663 5662 5658 5657 5655 5651 5647 5645 5644 5644 5644 5643 5641 5639 5636 5632 5628 5623 5618 5614 5614 5613 5609 5608 5605 5603 5601 5599 5596 5594 5591 5588 5586 5583 5581 5578 5576
5659 5658 5657 5655 5653 5651 5647 5644 5640 5640 5639 5637 5636 5635 5633 5631 5628 5625 5621 5616 5611 5609 5609 5606 5603 5600 5597 5595 5593 5590 5588 5585 5582 5580 5578 5575 5573 5570
5654 5653 5652 5651 5649 5646 5644 5641 5639 5637 5635 5632 5630 5628 5627 5625 5623 5621 5618 5615 5610 5606 5606 5603 5599 5596 5592 5588 5587 5584 5582 5579 5576 5574 5571 5569 5567 5564
5650 5649 5648 5647 5644 5641 5639 5638 5636 5634 5630 5627 5624 5622 5620 5619 5618 5615 5613 5611 5608 5606 5603 5600 5595 5591 5587 5583 5580 5578 5576 5573 5570 5568 5565 5563 5561 5558
5646 5646 5644 5642 5639 5636 5634 5633 5631 5628 5625 5622 5620 5618 5617 5615 5613 5610 5607 5605 5602 5600 5598 5595 5592 5588 5583 5579 5575 5572 5569 5567 5564 5561 5559 5556 5554 5551
5640 5639 5637 5635 5633 5631 5629 5627 5625 5624 5622 5619 5617 5615 5613 5610 5607 5604 5601 5598 5594 5592 5591 5589 5586 5583 5578 5574 5570 5566 5564 5560 5559 5556 5553 5550 5547 5545
5635 5632 5629 5627 5625 5624 5623 5622 5621 5619 5617 5615 5613 5610 5607 5604 5601 5599 5596 5592 5588 5585 5583 5581 5579 5576 5573 5569 5564 5562 5559 5556 5554 5550 5547 5544 5542 5539
5630 5627 5625 5624 5622 5620 5619 5617 5616 5614 5613 5611 5608 5606 5602 5599 5596 5593 5590 5587 5584 5581 5578 5575 5572 5569 5565 5562 5560 5557 5554 5551 5549 5546 5542 5537 5535 5533
5624 5624 5622 5621 5619 5617 5615 5614 5612 5611 5609 5607 5604 5601 5598 5595 5591 5588 5585 5582 5579 5576 5573 5570 5566 5562 5558 5555 5555 5553 5549 5546 5543 5539 5535 5532 5529 5527
5619 5619 5618 5617 5616 5614 5612 5610 5608 5606 5604 5602 5599 5597 5594 5590 5587 5583 5581 5578 5575 5571 5568 5564 5561 5558 5555 5551 5548 5546 5544 5540 5536 5533 5529 5526 5523 5521
5613 5614 5614 5613 5612 5611 5609 5607 5604 5602 5600 5598 5595 5592 5589 5586 5583 5580 5576 5573 5569 5566 5562 5559 5557 5554 5550 5546 5541 5538 5536 5534 5531 5527 5523 5519 5515 5513
5608 5608 5608 5608 5607 5606 5605 5602 5600 5598 5596 5593 5590 5588 5585 5582 5579 5575 5571 5567 5564 5561 5557 5553 5550 5547 5543 5539 5535 5532 5530 5527 5524 5521 5517 5514 5509 5505
5603 5603 5603 5602 5602 5601 5599 5597 5595 5593 5591 5588 5585 5582 5580 5576 5573 5570 5567 5563 5559 5554 5550 5545 5542 5539 5536 5532 5529 5525 5523 5520 5516 5513 5510 5508 5505 5502